アトラス彗星

C/2025 F1 ( ATLAS )

English version
Home page
Updated on May 2, 2025

---------------------------------------------------------------------

・ プロフィール

発見日 2025年3月22日
発見光度 19.1等
発見者 Asteroid Terrestrial-Impact Last Alert System (ATLAS) search program

・ 軌道要素

Epoch 2025 May 5.0 TT = JDT 2460800.5
T 2025 Apr. 20.47289 TT                                 Payne
q   1.0699803            (2000.0)            P               Q
z  +0.0033597      Peri.  334.22886     -0.60709529     +0.01474351
 +/-0.0002015      Node   122.70421     +0.78752879     +0.14452243
e   0.9964051      Incl.  109.23582     -0.10598922     +0.98939168
From 64 observations 2025 Mar. 22-Apr. 28, mean residual 0".6.

・ 光度変化

        m1 = 17.5 + 5 logΔ + 10.0 log r

---------------------------------------------------------------------

軌道要素はM.P.E.C. 2025-J08に掲載されたものです。
光度グラフはComet for Windowsで作成したものです。

---------------------------------------------------------------------

Copyright(C) Seiichi Yoshida (comet@aerith.net). All rights reserved.